Year,Month,Day,Hour,Minute,Value (Times are PST for temperature in C)
2015,07,05,00,00,15.70
2015,07,05,00,01,15.60
2015,07,05,00,02,15.50
2015,07,05,00,03,15.40
2015,07,05,00,04,15.40
2015,07,05,00,05,15.30
2015,07,05,00,06,15.30
2015,07,05,00,07,15.30
2015,07,05,00,08,15.30
2015,07,05,00,09,15.30
2015,07,05,00,10,15.30
2015,07,05,00,11,15.20
2015,07,05,00,12,15.00
2015,07,05,00,13,14.90
2015,07,05,00,14,14.80
2015,07,05,00,15,14.80
2015,07,05,00,16,14.70
2015,07,05,00,17,14.70
2015,07,05,00,18,14.70
2015,07,05,00,19,14.70
2015,07,05,00,20,14.70
2015,07,05,00,21,14.70
2015,07,05,00,22,14.80
2015,07,05,00,23,14.80
2015,07,05,00,24,14.80
2015,07,05,00,25,14.90
2015,07,05,00,26,15.00
2015,07,05,00,27,15.10
2015,07,05,00,28,15.20
2015,07,05,00,29,15.40
2015,07,05,00,30,15.60
2015,07,05,00,31,15.80
2015,07,05,00,32,16.00
2015,07,05,00,33,16.30
2015,07,05,00,34,16.40
2015,07,05,00,35,16.60
2015,07,05,00,36,16.70
2015,07,05,00,37,16.80
2015,07,05,00,38,16.90
2015,07,05,00,39,17.00
2015,07,05,00,40,17.00
2015,07,05,00,41,17.10
2015,07,05,00,42,17.20
2015,07,05,00,43,17.20
2015,07,05,00,44,17.20
2015,07,05,00,45,17.30
2015,07,05,00,46,17.30
2015,07,05,00,47,17.30
2015,07,05,00,48,17.40
2015,07,05,00,49,17.40
2015,07,05,00,50,17.40
2015,07,05,00,51,17.50
2015,07,05,00,52,17.50
2015,07,05,00,53,17.50
2015,07,05,00,54,17.60
2015,07,05,00,55,17.60
2015,07,05,00,56,17.60
2015,07,05,00,57,17.60
2015,07,05,00,58,17.60
2015,07,05,00,59,17.50
2015,07,05,01,00,17.50
2015,07,05,01,01,17.50
2015,07,05,01,02,17.50
2015,07,05,01,03,17.40
2015,07,05,01,04,17.40
2015,07,05,01,05,17.30
2015,07,05,01,06,17.30
2015,07,05,01,07,17.30
2015,07,05,01,08,17.20
2015,07,05,01,09,17.20
2015,07,05,01,10,17.10
2015,07,05,01,11,17.10
2015,07,05,01,12,17.10
2015,07,05,01,13,17.20
2015,07,05,01,14,17.20
2015,07,05,01,15,17.30
2015,07,05,01,16,17.30
2015,07,05,01,17,17.40
2015,07,05,01,18,17.40
2015,07,05,01,19,17.40
2015,07,05,01,20,17.30
2015,07,05,01,21,17.30
2015,07,05,01,22,17.20
2015,07,05,01,23,17.10
2015,07,05,01,24,17.00
2015,07,05,01,25,16.90
2015,07,05,01,26,16.90
2015,07,05,01,27,16.80
2015,07,05,01,28,16.80
2015,07,05,01,29,16.70
2015,07,05,01,30,16.70
2015,07,05,01,31,16.70
2015,07,05,01,32,16.70
2015,07,05,01,33,16.70
2015,07,05,01,34,16.70
2015,07,05,01,35,16.80
2015,07,05,01,36,16.90
2015,07,05,01,37,17.00
2015,07,05,01,38,17.20
2015,07,05,01,39,17.40
2015,07,05,01,40,17.60
2015,07,05,01,41,17.90
2015,07,05,01,42,18.00
2015,07,05,01,43,18.20
2015,07,05,01,44,18.40
2015,07,05,01,45,18.60
2015,07,05,01,46,18.70
2015,07,05,01,47,18.80
2015,07,05,01,48,19.00
2015,07,05,01,49,19.00
2015,07,05,01,50,19.10
2015,07,05,01,51,19.10
2015,07,05,01,52,19.10
2015,07,05,01,53,19.10
2015,07,05,01,54,19.00
2015,07,05,01,55,19.00
2015,07,05,01,56,19.00
2015,07,05,01,57,19.00
2015,07,05,01,58,19.10
2015,07,05,01,59,19.10
2015,07,05,02,00,19.20
2015,07,05,02,01,19.30
2015,07,05,02,02,19.30
2015,07,05,02,03,19.40
2015,07,05,02,04,19.50
2015,07,05,02,05,19.60
2015,07,05,02,06,19.70
2015,07,05,02,07,19.80
2015,07,05,02,08,19.80
2015,07,05,02,09,19.90
2015,07,05,02,10,20.00
2015,07,05,02,11,20.00
2015,07,05,02,12,20.10
2015,07,05,02,13,20.10
2015,07,05,02,14,20.10
2015,07,05,02,15,20.20
2015,07,05,02,16,20.20
2015,07,05,02,17,20.20
2015,07,05,02,18,20.20
2015,07,05,02,19,20.20
2015,07,05,02,20,20.20
2015,07,05,02,21,20.20
2015,07,05,02,22,20.20
2015,07,05,02,23,20.20
2015,07,05,02,24,20.20
2015,07,05,02,25,20.30
2015,07,05,02,26,20.30
2015,07,05,02,27,20.30
2015,07,05,02,28,20.30
2015,07,05,02,29,20.30
2015,07,05,02,30,20.30
2015,07,05,02,31,20.30
2015,07,05,02,32,20.30
2015,07,05,02,33,20.30
2015,07,05,02,34,20.30
2015,07,05,02,35,20.40
2015,07,05,02,36,20.40
2015,07,05,02,37,20.40
2015,07,05,02,38,20.40
2015,07,05,02,39,20.50
2015,07,05,02,40,20.50
2015,07,05,02,41,20.50
2015,07,05,02,42,20.60
2015,07,05,02,43,20.60
2015,07,05,02,44,20.60
2015,07,05,02,45,20.60
2015,07,05,02,46,20.70
2015,07,05,02,47,20.70
2015,07,05,02,48,20.70
2015,07,05,02,49,20.70
2015,07,05,02,50,20.70
2015,07,05,02,51,20.80
2015,07,05,02,52,20.80
2015,07,05,02,53,20.80
2015,07,05,02,54,20.80
2015,07,05,02,55,20.80
2015,07,05,02,56,20.80
2015,07,05,02,57,20.80
2015,07,05,02,58,20.80
2015,07,05,02,59,20.80
2015,07,05,03,00,20.80
2015,07,05,03,01,20.80
2015,07,05,03,02,20.80
2015,07,05,03,03,20.80
2015,07,05,03,04,20.80
2015,07,05,03,05,20.80
2015,07,05,03,06,20.90
2015,07,05,03,07,20.90
2015,07,05,03,08,20.90
2015,07,05,03,09,20.90
2015,07,05,03,10,20.90
2015,07,05,03,11,20.80
2015,07,05,03,12,20.80
2015,07,05,03,13,20.80
2015,07,05,03,14,20.80
2015,07,05,03,15,20.80
2015,07,05,03,16,20.70
2015,07,05,03,17,20.70
2015,07,05,03,18,20.60
2015,07,05,03,19,20.50
2015,07,05,03,20,20.50
2015,07,05,03,21,20.40
2015,07,05,03,22,20.40
2015,07,05,03,23,20.30
2015,07,05,03,24,20.30
2015,07,05,03,25,20.20
2015,07,05,03,26,20.20
2015,07,05,03,27,20.20
2015,07,05,03,28,20.10
2015,07,05,03,29,20.10
2015,07,05,03,30,20.00
2015,07,05,03,31,20.00
2015,07,05,03,32,19.90
2015,07,05,03,33,19.90
2015,07,05,03,34,19.90
2015,07,05,03,35,19.90
2015,07,05,03,36,19.90
2015,07,05,03,37,19.90
2015,07,05,03,38,19.90
2015,07,05,03,39,19.90
2015,07,05,03,40,19.90
2015,07,05,03,41,19.90
2015,07,05,03,42,19.90
2015,07,05,03,43,19.90
2015,07,05,03,44,19.90
2015,07,05,03,45,19.90
2015,07,05,03,46,19.90
2015,07,05,03,47,20.00
2015,07,05,03,48,20.00
2015,07,05,03,49,20.10
2015,07,05,03,50,20.10
2015,07,05,03,51,20.10
2015,07,05,03,52,20.00
2015,07,05,03,53,19.90
2015,07,05,03,54,19.80
2015,07,05,03,55,19.70
2015,07,05,03,56,19.50
2015,07,05,03,57,19.40
2015,07,05,03,58,19.30
2015,07,05,03,59,19.10
2015,07,05,04,00,18.80
2015,07,05,04,01,18.70
2015,07,05,04,02,18.50
2015,07,05,04,03,18.40
2015,07,05,04,04,18.20
2015,07,05,04,05,18.10
2015,07,05,04,06,18.00
2015,07,05,04,07,17.90
2015,07,05,04,08,17.90
2015,07,05,04,09,17.80
2015,07,05,04,10,17.70
2015,07,05,04,11,17.60
2015,07,05,04,12,17.50
2015,07,05,04,13,17.30
2015,07,05,04,14,17.30
2015,07,05,04,15,17.20
2015,07,05,04,16,17.20
2015,07,05,04,17,17.10
2015,07,05,04,18,17.10
2015,07,05,04,19,17.10
2015,07,05,04,20,17.00
2015,07,05,04,21,17.00
2015,07,05,04,22,17.00
2015,07,05,04,23,16.90
2015,07,05,04,24,16.90
2015,07,05,04,25,16.80
2015,07,05,04,26,16.80
2015,07,05,04,27,16.80
2015,07,05,04,28,16.80
2015,07,05,04,29,16.80
2015,07,05,04,30,16.70
2015,07,05,04,31,16.70
2015,07,05,04,32,16.70
2015,07,05,04,33,16.70
2015,07,05,04,34,16.70
2015,07,05,04,35,16.70
2015,07,05,04,36,16.70
2015,07,05,04,37,16.70
2015,07,05,04,38,16.70
2015,07,05,04,39,16.70
2015,07,05,04,40,16.70
2015,07,05,04,41,16.70
2015,07,05,04,42,16.70
2015,07,05,04,43,16.70
2015,07,05,04,44,16.70
2015,07,05,04,45,16.70
2015,07,05,04,46,16.70
2015,07,05,04,47,16.70
2015,07,05,04,48,16.70
2015,07,05,04,49,16.70
2015,07,05,04,50,16.70
2015,07,05,04,51,16.70
2015,07,05,04,52,16.70
2015,07,05,04,53,16.70
2015,07,05,04,54,16.80
2015,07,05,04,55,16.80
2015,07,05,04,56,16.90
2015,07,05,04,57,17.00
2015,07,05,04,58,17.00
2015,07,05,04,59,17.10
2015,07,05,05,00,17.10
2015,07,05,05,01,17.20
2015,07,05,05,02,17.20
2015,07,05,05,03,17.30
2015,07,05,05,04,17.40
2015,07,05,05,05,17.50
2015,07,05,05,06,17.60
2015,07,05,05,07,17.70
2015,07,05,05,08,17.90
2015,07,05,05,09,18.00
2015,07,05,05,10,18.20
2015,07,05,05,11,18.30
2015,07,05,05,12,18.50
2015,07,05,05,13,18.70
2015,07,05,05,14,18.90
2015,07,05,05,15,19.10
2015,07,05,05,16,19.30
2015,07,05,05,17,19.50
2015,07,05,05,18,19.60
2015,07,05,05,19,19.80
2015,07,05,05,20,19.90
2015,07,05,05,21,20.10
2015,07,05,05,22,20.20
2015,07,05,05,23,20.30
2015,07,05,05,24,20.40
2015,07,05,05,25,20.50
2015,07,05,05,26,20.60
2015,07,05,05,27,20.70
2015,07,05,05,28,20.70
2015,07,05,05,29,20.80
2015,07,05,05,30,20.90
2015,07,05,05,31,20.90
2015,07,05,05,32,21.00
2015,07,05,05,33,21.00
2015,07,05,05,34,21.10
2015,07,05,05,35,21.10
2015,07,05,05,36,21.20
2015,07,05,05,37,21.20
2015,07,05,05,38,21.20
2015,07,05,05,39,21.20
2015,07,05,05,40,21.30
2015,07,05,05,41,21.30
2015,07,05,05,42,21.30
2015,07,05,05,43,21.40
2015,07,05,05,44,21.40
2015,07,05,05,45,21.40
2015,07,05,05,46,21.40
2015,07,05,05,47,21.40
2015,07,05,05,48,21.40
2015,07,05,05,49,21.40
2015,07,05,05,50,21.40
2015,07,05,05,51,21.40
2015,07,05,05,52,21.40
2015,07,05,05,53,21.40
2015,07,05,05,54,21.40
2015,07,05,05,55,21.40
2015,07,05,05,56,21.40
2015,07,05,05,57,21.40
2015,07,05,05,58,21.40
2015,07,05,05,59,21.40
2015,07,05,06,00,21.30
2015,07,05,06,01,21.30
2015,07,05,06,02,21.30
2015,07,05,06,03,21.30
2015,07,05,06,04,21.20
2015,07,05,06,05,21.10
2015,07,05,06,06,21.00
2015,07,05,06,07,20.90
2015,07,05,06,08,20.70
2015,07,05,06,09,20.50
2015,07,05,06,10,20.40
2015,07,05,06,11,20.30
2015,07,05,06,12,20.20
2015,07,05,06,13,20.10
2015,07,05,06,14,20.00
2015,07,05,06,15,19.90
2015,07,05,06,16,19.90
2015,07,05,06,17,19.90
2015,07,05,06,18,20.00
2015,07,05,06,19,20.00
2015,07,05,06,20,20.00
2015,07,05,06,21,20.10
2015,07,05,06,22,20.20
2015,07,05,06,23,20.30
2015,07,05,06,24,20.40
2015,07,05,06,25,20.40
2015,07,05,06,26,20.50
2015,07,05,06,27,20.60
2015,07,05,06,28,20.60
2015,07,05,06,29,20.50
2015,07,05,06,30,20.50
2015,07,05,06,31,20.40
2015,07,05,06,32,20.30
2015,07,05,06,33,20.10
2015,07,05,06,34,20.00
2015,07,05,06,35,19.90
2015,07,05,06,36,19.80
2015,07,05,06,37,19.70
2015,07,05,06,38,19.60
2015,07,05,06,39,19.60
2015,07,05,06,40,19.50
2015,07,05,06,41,19.40
2015,07,05,06,42,19.40
2015,07,05,06,43,19.40
2015,07,05,06,44,19.40
2015,07,05,06,45,19.30
2015,07,05,06,46,19.30
2015,07,05,06,47,19.30
2015,07,05,06,48,19.30
2015,07,05,06,49,19.30
2015,07,05,06,50,19.30
2015,07,05,06,51,19.30
2015,07,05,06,52,19.30
2015,07,05,06,53,19.30
2015,07,05,06,54,19.20
2015,07,05,06,55,19.10
2015,07,05,06,56,19.00
2015,07,05,06,57,19.00
2015,07,05,06,58,18.90
2015,07,05,06,59,18.80
2015,07,05,07,00,18.80
2015,07,05,07,01,18.70
2015,07,05,07,02,18.70
2015,07,05,07,03,18.60
2015,07,05,07,04,18.60
2015,07,05,07,05,18.60
2015,07,05,07,06,18.60
2015,07,05,07,07,18.50
2015,07,05,07,08,18.50
2015,07,05,07,09,18.50
2015,07,05,07,10,18.50
2015,07,05,07,11,18.40
2015,07,05,07,12,18.40
2015,07,05,07,13,18.40
2015,07,05,07,14,18.40
2015,07,05,07,15,18.30
2015,07,05,07,16,18.30
2015,07,05,07,17,18.30
2015,07,05,07,18,18.30
2015,07,05,07,19,18.30
2015,07,05,07,20,18.30
2015,07,05,07,21,18.30
2015,07,05,07,22,18.30
2015,07,05,07,23,18.30
2015,07,05,07,24,18.30
2015,07,05,07,25,18.30
2015,07,05,07,26,18.30
2015,07,05,07,27,18.30
2015,07,05,07,28,18.30
2015,07,05,07,29,18.30
2015,07,05,07,30,18.30
2015,07,05,07,31,18.40
2015,07,05,07,32,18.40
2015,07,05,07,33,18.40
2015,07,05,07,34,18.40
2015,07,05,07,35,18.50
2015,07,05,07,36,18.50
2015,07,05,07,37,18.50
2015,07,05,07,38,18.50
2015,07,05,07,39,18.60
2015,07,05,07,40,18.60
2015,07,05,07,41,18.60
2015,07,05,07,42,18.60
2015,07,05,07,43,18.60
2015,07,05,07,44,18.60
2015,07,05,07,45,18.60
2015,07,05,07,46,18.70
2015,07,05,07,47,18.70
2015,07,05,07,48,18.70
2015,07,05,07,49,18.70
2015,07,05,07,50,18.70
2015,07,05,07,51,18.80
2015,07,05,07,52,18.80
2015,07,05,07,53,18.80
2015,07,05,07,54,18.90
2015,07,05,07,55,18.90
2015,07,05,07,56,18.90
2015,07,05,07,57,19.00
2015,07,05,07,58,19.00
2015,07,05,07,59,19.00
2015,07,05,08,00,19.10
2015,07,05,08,01,19.10
2015,07,05,08,02,19.10
2015,07,05,08,03,19.20
2015,07,05,08,04,19.20
2015,07,05,08,05,19.20
2015,07,05,08,06,19.20
2015,07,05,08,07,19.10
2015,07,05,08,08,19.10
2015,07,05,08,09,19.10
2015,07,05,08,10,19.10
2015,07,05,08,11,19.10
2015,07,05,08,12,19.10
2015,07,05,08,13,19.10
2015,07,05,08,14,19.10
2015,07,05,08,15,19.10
2015,07,05,08,16,19.10
2015,07,05,08,17,19.10
2015,07,05,08,18,19.20
2015,07,05,08,19,19.20
2015,07,05,08,20,19.20
2015,07,05,08,21,19.20
2015,07,05,08,22,19.30
2015,07,05,08,23,19.30
2015,07,05,08,24,19.40
2015,07,05,08,25,19.50
2015,07,05,08,26,19.50
2015,07,05,08,27,19.60
2015,07,05,08,28,19.60
2015,07,05,08,29,19.60
2015,07,05,08,30,19.70
2015,07,05,08,31,19.70
2015,07,05,08,32,19.70
2015,07,05,08,33,19.70
2015,07,05,08,34,19.70
2015,07,05,08,35,19.60
2015,07,05,08,36,19.60
2015,07,05,08,37,19.60
2015,07,05,08,38,19.60
2015,07,05,08,39,19.60
2015,07,05,08,40,19.60
2015,07,05,08,41,19.60
2015,07,05,08,42,19.70
2015,07,05,08,43,19.70
2015,07,05,08,44,19.70
2015,07,05,08,45,19.80
2015,07,05,08,46,19.80
2015,07,05,08,47,19.90
2015,07,05,08,48,19.90
2015,07,05,08,49,19.90
2015,07,05,08,50,20.00
2015,07,05,08,51,20.00
2015,07,05,08,52,20.00
2015,07,05,08,53,20.00
2015,07,05,08,54,20.10
2015,07,05,08,55,20.10
2015,07,05,08,56,20.10
2015,07,05,08,57,20.20
2015,07,05,08,58,20.20
2015,07,05,08,59,20.30
2015,07,05,09,00,20.30
2015,07,05,09,01,20.30
2015,07,05,09,02,20.40
2015,07,05,09,03,20.50
2015,07,05,09,04,20.50
2015,07,05,09,05,20.60
2015,07,05,09,06,20.70
2015,07,05,09,07,20.70
2015,07,05,09,08,20.70
2015,07,05,09,09,20.70
2015,07,05,09,10,20.70
2015,07,05,09,11,20.70
2015,07,05,09,12,20.70
2015,07,05,09,13,20.60
2015,07,05,09,14,20.60
2015,07,05,09,15,20.60
2015,07,05,09,16,20.60
2015,07,05,09,17,20.60
2015,07,05,09,18,20.60
2015,07,05,09,19,20.60
2015,07,05,09,20,20.60
2015,07,05,09,21,20.60
2015,07,05,09,22,20.50
2015,07,05,09,23,20.50
2015,07,05,09,24,20.40
2015,07,05,09,25,20.40
2015,07,05,09,26,20.50
2015,07,05,09,27,20.50
2015,07,05,09,28,20.50
2015,07,05,09,29,20.60
2015,07,05,09,30,20.60
2015,07,05,09,31,20.60
2015,07,05,09,32,20.60
2015,07,05,09,33,20.50
2015,07,05,09,34,20.50
2015,07,05,09,35,20.40
2015,07,05,09,36,20.40
2015,07,05,09,37,20.40
2015,07,05,09,38,20.40
2015,07,05,09,39,20.50
2015,07,05,09,40,20.50
2015,07,05,09,41,20.60
2015,07,05,09,42,20.60
2015,07,05,09,43,20.60
2015,07,05,09,44,20.70
2015,07,05,09,45,20.70
2015,07,05,09,46,20.80
2015,07,05,09,47,20.80
2015,07,05,09,48,20.90
2015,07,05,09,49,20.90
2015,07,05,09,50,21.00
2015,07,05,09,51,21.10
2015,07,05,09,52,21.10
2015,07,05,09,53,21.10
2015,07,05,09,54,21.20
2015,07,05,09,55,21.20
2015,07,05,09,56,21.20
2015,07,05,09,57,21.30
2015,07,05,09,58,21.30
2015,07,05,09,59,21.30
2015,07,05,10,00,21.40
2015,07,05,10,01,21.40
2015,07,05,10,02,21.50
2015,07,05,10,03,21.40
2015,07,05,10,04,21.40
2015,07,05,10,05,21.40
2015,07,05,10,06,21.40
2015,07,05,10,07,21.40
2015,07,05,10,08,21.40
2015,07,05,10,09,21.40
2015,07,05,10,10,21.40
2015,07,05,10,11,21.40
2015,07,05,10,12,21.40
2015,07,05,10,13,21.40
2015,07,05,10,14,21.40
2015,07,05,10,15,21.50
2015,07,05,10,16,21.50
2015,07,05,10,17,21.60
2015,07,05,10,18,21.60
2015,07,05,10,19,21.60
2015,07,05,10,20,21.60
2015,07,05,10,21,21.70
2015,07,05,10,22,21.70
2015,07,05,10,23,21.70
2015,07,05,10,24,21.80
2015,07,05,10,25,21.80
2015,07,05,10,26,21.90
2015,07,05,10,27,21.90
2015,07,05,10,28,21.90
2015,07,05,10,29,21.90
2015,07,05,10,30,21.80
2015,07,05,10,31,21.80
2015,07,05,10,32,21.80
2015,07,05,10,33,21.70
2015,07,05,10,34,21.70
2015,07,05,10,35,21.70
2015,07,05,10,36,21.60
2015,07,05,10,37,21.60
2015,07,05,10,38,21.60
2015,07,05,10,39,21.50
2015,07,05,10,40,21.50
2015,07,05,10,41,21.40
2015,07,05,10,42,21.40
2015,07,05,10,43,21.40
2015,07,05,10,44,21.40
2015,07,05,10,45,21.40
2015,07,05,10,46,21.40
2015,07,05,10,47,21.40
2015,07,05,10,48,21.40
2015,07,05,10,49,21.40
2015,07,05,10,50,21.40
2015,07,05,10,51,21.40
2015,07,05,10,52,21.40
2015,07,05,10,53,21.40
2015,07,05,10,54,21.40
2015,07,05,10,55,21.40
2015,07,05,10,56,21.50
2015,07,05,10,57,21.50
2015,07,05,10,58,21.50
2015,07,05,10,59,21.60
2015,07,05,11,00,21.60
2015,07,05,11,01,21.60
2015,07,05,11,02,21.70
2015,07,05,11,03,21.70
2015,07,05,11,04,21.70
2015,07,05,11,05,21.70
2015,07,05,11,06,21.70
2015,07,05,11,07,21.70
2015,07,05,11,08,21.70
2015,07,05,11,09,21.70
2015,07,05,11,10,21.60
2015,07,05,11,11,21.60
2015,07,05,11,12,21.50
2015,07,05,11,13,21.50
2015,07,05,11,14,21.40
2015,07,05,11,15,21.40
2015,07,05,11,16,21.30
2015,07,05,11,17,21.20
2015,07,05,11,18,21.20
2015,07,05,11,19,21.10
2015,07,05,11,20,21.10
2015,07,05,11,21,21.00
2015,07,05,11,22,21.00
2015,07,05,11,23,20.90
2015,07,05,11,24,20.90
2015,07,05,11,25,20.90
2015,07,05,11,26,20.90
2015,07,05,11,27,20.80
2015,07,05,11,28,20.80
2015,07,05,11,29,20.80
2015,07,05,11,30,20.80
2015,07,05,11,31,20.90
2015,07,05,11,32,20.90
2015,07,05,11,33,20.90
2015,07,05,11,34,20.90
2015,07,05,11,35,20.90
2015,07,05,11,36,20.90
2015,07,05,11,37,20.90
2015,07,05,11,38,21.00
2015,07,05,11,39,21.00
2015,07,05,11,40,21.00
2015,07,05,11,41,21.00
2015,07,05,11,42,21.10
2015,07,05,11,43,21.10
2015,07,05,11,44,21.10
2015,07,05,11,45,21.10
2015,07,05,11,46,21.10
2015,07,05,11,47,21.20
2015,07,05,11,48,21.20
2015,07,05,11,49,21.20
2015,07,05,11,50,21.20
2015,07,05,11,51,21.20
2015,07,05,11,52,21.30
2015,07,05,11,53,21.30
2015,07,05,11,54,21.30
2015,07,05,11,55,21.30
2015,07,05,11,56,21.40
2015,07,05,11,57,21.40
2015,07,05,11,58,21.40
2015,07,05,11,59,21.50
2015,07,05,12,00,21.50
2015,07,05,12,01,21.60
2015,07,05,12,02,21.60
2015,07,05,12,03,21.60
2015,07,05,12,04,21.70
2015,07,05,12,05,21.70
2015,07,05,12,06,21.80
2015,07,05,12,07,21.80
2015,07,05,12,08,21.90
2015,07,05,12,09,21.90
2015,07,05,12,10,22.00
2015,07,05,12,11,22.00
2015,07,05,12,12,22.10
2015,07,05,12,13,22.10
2015,07,05,12,14,22.20
2015,07,05,12,15,22.20
2015,07,05,12,16,22.30
2015,07,05,12,17,22.30
2015,07,05,12,18,22.30
2015,07,05,12,19,22.40
2015,07,05,12,20,22.40
2015,07,05,12,21,22.40
2015,07,05,12,22,22.40
2015,07,05,12,23,22.50
2015,07,05,12,24,22.50
2015,07,05,12,25,22.60
2015,07,05,12,26,22.60
2015,07,05,12,27,22.70
2015,07,05,12,28,22.80
2015,07,05,12,29,22.80
2015,07,05,12,30,22.90
2015,07,05,12,31,23.00
2015,07,05,12,32,23.10
2015,07,05,12,33,23.20
2015,07,05,12,34,23.30
2015,07,05,12,35,23.40
2015,07,05,12,36,23.50
2015,07,05,12,37,23.50
2015,07,05,12,38,23.60
2015,07,05,12,39,23.70
2015,07,05,12,40,23.80
2015,07,05,12,41,23.70
2015,07,05,12,42,23.60
2015,07,05,12,43,23.60
2015,07,05,12,44,23.50
2015,07,05,12,45,23.40
2015,07,05,12,46,23.30
2015,07,05,12,47,23.30
2015,07,05,12,48,23.30
2015,07,05,12,49,23.30
2015,07,05,12,50,23.30
2015,07,05,12,51,23.30
2015,07,05,12,52,23.40
2015,07,05,12,53,23.50
2015,07,05,12,54,23.60
2015,07,05,12,55,23.60
2015,07,05,12,56,23.70
2015,07,05,12,57,23.80
2015,07,05,12,58,23.90
2015,07,05,12,59,24.00
2015,07,05,13,00,24.10
2015,07,05,13,01,24.10
2015,07,05,13,02,24.20
2015,07,05,13,03,24.30
2015,07,05,13,04,24.30
2015,07,05,13,05,24.40
2015,07,05,13,06,24.40
2015,07,05,13,07,24.50
2015,07,05,13,08,24.50
2015,07,05,13,09,24.60
2015,07,05,13,10,24.70
2015,07,05,13,11,24.70
2015,07,05,13,12,24.80
2015,07,05,13,13,24.80
2015,07,05,13,14,24.90
2015,07,05,13,15,24.90
2015,07,05,13,16,25.00
2015,07,05,13,17,25.00
2015,07,05,13,18,25.10
2015,07,05,13,19,25.10
2015,07,05,13,20,25.10
2015,07,05,13,21,25.20
2015,07,05,13,22,25.30
2015,07,05,13,23,25.30
2015,07,05,13,24,25.40
2015,07,05,13,25,25.40
2015,07,05,13,26,25.50
2015,07,05,13,27,25.60
2015,07,05,13,28,25.70
2015,07,05,13,29,25.70
2015,07,05,13,30,25.80
2015,07,05,13,31,25.80
2015,07,05,13,32,25.90
2015,07,05,13,33,25.90
2015,07,05,13,34,25.90
2015,07,05,13,35,25.90
2015,07,05,13,36,26.00
2015,07,05,13,37,26.00
2015,07,05,13,38,26.00
2015,07,05,13,39,26.00
2015,07,05,13,40,26.00
2015,07,05,13,41,25.90
2015,07,05,13,42,25.90
2015,07,05,13,43,25.90
2015,07,05,13,44,25.80
2015,07,05,13,45,25.80
2015,07,05,13,46,25.80
2015,07,05,13,47,25.70
2015,07,05,13,48,25.70
2015,07,05,13,49,25.60
2015,07,05,13,50,25.60
2015,07,05,13,51,25.50
2015,07,05,13,52,25.50
2015,07,05,13,53,25.40
2015,07,05,13,54,25.40
2015,07,05,13,55,25.40
2015,07,05,13,56,25.40
2015,07,05,13,57,25.40
2015,07,05,13,58,25.40
2015,07,05,13,59,25.30
2015,07,05,14,00,25.40
2015,07,05,14,01,25.40
2015,07,05,14,02,25.40
2015,07,05,14,03,25.50
2015,07,05,14,04,25.50
2015,07,05,14,05,25.60
2015,07,05,14,06,25.60
2015,07,05,14,07,25.70
2015,07,05,14,08,25.80
2015,07,05,14,09,25.80
2015,07,05,14,10,25.90
2015,07,05,14,11,25.90
2015,07,05,14,12,26.00
2015,07,05,14,13,26.10
2015,07,05,14,14,26.10
2015,07,05,14,15,26.10
2015,07,05,14,16,26.20
2015,07,05,14,17,26.20
2015,07,05,14,18,26.30
2015,07,05,14,19,26.30
2015,07,05,14,20,26.30
2015,07,05,14,21,26.40
2015,07,05,14,22,26.40
2015,07,05,14,23,26.50
2015,07,05,14,24,26.60
2015,07,05,14,25,26.60
2015,07,05,14,26,26.70
2015,07,05,14,27,26.70
2015,07,05,14,28,26.80
2015,07,05,14,29,26.80
2015,07,05,14,30,26.80
2015,07,05,14,31,26.90
2015,07,05,14,32,26.90
2015,07,05,14,33,27.00
2015,07,05,14,34,27.10
2015,07,05,14,35,27.10
2015,07,05,14,36,27.10
2015,07,05,14,37,27.20
2015,07,05,14,38,27.20
2015,07,05,14,39,27.20
2015,07,05,14,40,27.30
2015,07,05,14,41,27.30
2015,07,05,14,42,27.30
2015,07,05,14,43,27.30
2015,07,05,14,44,27.30
2015,07,05,14,45,27.30
2015,07,05,14,46,27.30
2015,07,05,14,47,27.40
2015,07,05,14,48,27.40
2015,07,05,14,49,27.50
2015,07,05,14,50,27.50
2015,07,05,14,51,27.50
2015,07,05,14,52,27.60
2015,07,05,14,53,27.60
2015,07,05,14,54,27.60
2015,07,05,14,55,27.60
2015,07,05,14,56,27.60
2015,07,05,14,57,27.70
2015,07,05,14,58,27.70
2015,07,05,14,59,27.70
2015,07,05,15,00,27.70
2015,07,05,15,01,27.70
2015,07,05,15,02,27.70
2015,07,05,15,03,27.70
2015,07,05,15,04,27.70
2015,07,05,15,05,27.70
2015,07,05,15,06,27.70
2015,07,05,15,07,27.80
2015,07,05,15,08,27.80
2015,07,05,15,09,27.80
2015,07,05,15,10,27.80
2015,07,05,15,11,27.90
2015,07,05,15,12,27.90
2015,07,05,15,13,27.90
2015,07,05,15,14,27.90
2015,07,05,15,15,27.90
2015,07,05,15,16,27.90
2015,07,05,15,17,28.00
2015,07,05,15,18,28.00
2015,07,05,15,19,28.10
2015,07,05,15,20,28.10
2015,07,05,15,21,28.20
2015,07,05,15,22,28.20
2015,07,05,15,23,28.20
2015,07,05,15,24,28.30
2015,07,05,15,25,28.30
2015,07,05,15,26,28.30
2015,07,05,15,27,28.30
2015,07,05,15,28,28.30
2015,07,05,15,29,28.20
2015,07,05,15,30,28.10
2015,07,05,15,31,28.00
2015,07,05,15,32,27.90
2015,07,05,15,33,27.80
2015,07,05,15,34,27.80
2015,07,05,15,35,27.80
2015,07,05,15,36,27.80
2015,07,05,15,37,27.70
2015,07,05,15,38,27.70
2015,07,05,15,39,27.70
2015,07,05,15,40,27.70
2015,07,05,15,41,27.70
2015,07,05,15,42,27.70
2015,07,05,15,43,27.70
2015,07,05,15,44,27.70
2015,07,05,15,45,27.60
2015,07,05,15,46,27.50
2015,07,05,15,47,27.50
2015,07,05,15,48,27.40
2015,07,05,15,49,27.40
2015,07,05,15,50,27.40
2015,07,05,15,51,27.40
2015,07,05,15,52,27.40
2015,07,05,15,53,27.40
2015,07,05,15,54,27.30
2015,07,05,15,55,27.30
2015,07,05,15,56,27.40
2015,07,05,15,57,27.40
2015,07,05,15,58,27.40
2015,07,05,15,59,27.40
2015,07,05,16,00,27.40
2015,07,05,16,01,27.50
2015,07,05,16,02,27.50
2015,07,05,16,03,27.50
2015,07,05,16,04,27.50
2015,07,05,16,05,27.60
2015,07,05,16,06,27.60
2015,07,05,16,07,27.60
2015,07,05,16,08,27.60
2015,07,05,16,09,27.60
2015,07,05,16,10,27.70
2015,07,05,16,11,27.70
2015,07,05,16,12,27.70
2015,07,05,16,13,27.60
2015,07,05,16,14,27.60
2015,07,05,16,15,27.60
2015,07,05,16,16,27.60
2015,07,05,16,17,27.60
2015,07,05,16,18,27.60
2015,07,05,16,19,27.60
2015,07,05,16,20,27.50
2015,07,05,16,21,27.50
2015,07,05,16,22,27.50
2015,07,05,16,23,27.50
2015,07,05,16,24,27.40
2015,07,05,16,25,27.40
2015,07,05,16,26,27.40
2015,07,05,16,27,27.30
2015,07,05,16,28,27.30
2015,07,05,16,29,27.30
2015,07,05,16,30,27.30
2015,07,05,16,31,27.30
2015,07,05,16,32,27.30
2015,07,05,16,33,27.30
2015,07,05,16,34,27.20
2015,07,05,16,35,27.20
2015,07,05,16,36,27.10
2015,07,05,16,37,27.10
2015,07,05,16,38,27.10
2015,07,05,16,39,27.10
2015,07,05,16,40,27.00
2015,07,05,16,41,27.00
2015,07,05,16,42,26.90
2015,07,05,16,43,26.90
2015,07,05,16,44,26.90
2015,07,05,16,45,26.90
2015,07,05,16,46,26.80
2015,07,05,16,47,26.80
2015,07,05,16,48,26.70
2015,07,05,16,49,26.70
2015,07,05,16,50,26.70
2015,07,05,16,51,26.70
2015,07,05,16,52,26.70
2015,07,05,16,53,26.60
2015,07,05,16,54,26.60
2015,07,05,16,55,26.60
2015,07,05,16,56,26.60
2015,07,05,16,57,26.50
2015,07,05,16,58,26.40
2015,07,05,16,59,26.40
2015,07,05,17,00,26.40
2015,07,05,17,01,26.40
2015,07,05,17,02,26.30
2015,07,05,17,03,26.30
2015,07,05,17,04,26.30
2015,07,05,17,05,26.30
2015,07,05,17,06,26.30
2015,07,05,17,07,26.30
2015,07,05,17,08,26.30
2015,07,05,17,09,26.30
2015,07,05,17,10,26.30
2015,07,05,17,11,26.30
2015,07,05,17,12,26.30
2015,07,05,17,13,26.30
2015,07,05,17,14,26.30
2015,07,05,17,15,26.30
2015,07,05,17,16,26.30
2015,07,05,17,17,26.30
2015,07,05,17,18,26.30
2015,07,05,17,19,26.30